Location: Azalea Creek
(37.1280°N, 119.2623°W)
Time: 14:30:55
(UTC+00:00)

USA 267 - Pass Details

Date: 17 February 2020
Orbit: 1101 x 1107 km, 123.0° (Epoch: 05 April)

Event Time Altitude Azimuth Distance (km) Brightness Sun altitude
Exits shadow 04:17:06 41° 6° (N) 1,539 3.9 -32.3°
Maximum altitude 04:18:51 52° 323° (NW) 1,348 3.8 -32.7°
Drops below altitude 10° 04:25:08 10° 249° (WSW) 2,957 6.1 -33.9°
Sets 04:27:40 0° 244° (WSW) 3,914 6.8 -34.4°
